Location: Unspecified
(0.0000°N, 0.0000°E)
Time: 03:27:35
(UTC+00:00)

Vanguard 2 - Pass Details

Date: 13 December 2017
Orbit: 552 x 2940 km, 32.9° (Epoch: 17 January)

Event Time Altitude Azimuth Distance (km) Brightness Sun altitude
Rises 05:51:03 0° 225° (SW) 5,969 11.8 -0.7°
Reaches altitude 10° 05:57:42 10° 205° (SSW) 5,366 11.8 0.8°
Maximum altitude 06:06:20 16° 173° (S) 5,204 12.2 2.8°
Drops below altitude 10° 06:15:33 10° 141° (SE) 5,767 13.3 4.9°
Sets 06:23:14 0° 121° (ESE) 6,639 14.6 6.7°
